User: anonymous   Login
Location: Eaton Estates
(41.3089°N, 82.0057°W)
Time: 21:21:56
(UTC+00:00)
Language:

COSMOS 2251 DEB - Orbit

View from above orbital plane
View from above orbital plane
View from above satellite
View from above satellite

Ground track
Ground track

The orbit data is extracted from the following two-line orbital elements,

1 33823U 93036BQ  22022.53518491  .00000423  00000-0  27620-3 0  9993
2 33823  73.8129 106.8883 0218492 116.6629 259.9944 13.94125877657885
Epoch (UTC): 22 January 2022 12:50:39
Eccentricity: 0.0218492
inclination: 73.8129°
perigee height: 755 km
apogee height: 1073 km
right ascension of ascending node: 106.8883°
argument of perigee: 116.6629°
revolutions per day: 13.94125877
mean anomaly at epoch: 259.9944°
orbit number at epoch: 65788

The dashed part of the orbit path shows where the satellite is in the earth's shadow,  

DLR